START_TIME,STEP,MOV.,P1,t_acc.,E44,t_acc.,A3,t_acc.,P10,t_acc.
1979-07-30 18:00:22.250 ,0,0,1.,1.2,224.,1.2,0.,1.2,0.,1.2
1979-07-30 18:00:23.450 ,0,0,0.,1.2,116.,1.2,0.,1.2,0.,1.2
1979-07-30 18:00:24.650 ,0,0,0.,1.2,116.,1.2,0.,1.2,0.,1.2
1979-07-30 18:00:25.850 ,0,0,0.,1.2,94.,1.2,0.,1.2,0.,1.2
1979-07-30 18:00:27.050 ,0,0,0.,1.2,112.,1.2,0.,1.2,0.,1.2
1979-07-30 18:00:28.250 ,0,0,0.,1.2,256.,1.2,0.,1.2,0.,1.2
1979-07-30 18:00:29.450 ,0,0,1.,1.2,110.,1.2,0.,1.2,0.,1.2
1979-07-30 18:00:30.650 ,0,0,0.,1.2,126.,1.2,0.,1.2,0.,1.2
1979-07-30 18:00:31.850 ,0,0,0.,1.2,136.,1.2,0.,1.2,0.,1.2
1979-07-30 18:00:33.050 ,0,0,0.,1.2,144.,1.2,0.,1.2,0.,1.2
1979-07-30 18:00:34.250 ,0,0,0.,1.2,320.,1.2,0.,1.2,0.,1.2
1979-07-30 18:00:35.450 ,0,0,0.,1.2,144.,1.2,0.,1.2,0.,1.2
1979-07-30 18:00:36.650 ,0,0,0.,1.2,156.,1.2,0.,1.2,0.,1.2
1979-07-30 18:00:37.850 ,0,0,1.,1.2,132.,1.2,0.,1.2,0.,1.2
1979-07-30 18:00:39.050 ,0,0,0.,1.2,144.,1.2,0.,1.2,0.,1.2
1979-07-30 18:00:40.250 ,0,0,0.,1.2,140.,1.2,0.,1.2,0.,1.2
1979-07-30 18:00:41.450 ,0,0,0.,1.2,172.,1.2,0.,1.2,0.,1.2
1979-07-30 18:00:42.650 ,0,0,1.,1.2,144.,1.2,0.,1.2,0.,1.2
1979-07-30 18:00:43.850 ,0,0,1.,1.2,156.,1.2,0.,1.2,0.,1.2
1979-07-30 18:00:45.050 ,0,0,0.,1.2,152.,1.2,0.,1.2,0.,1.2
1979-07-30 18:00:46.250 ,4,0,1.,1.2,256.,1.2,0.,1.2,0.,1.2
1979-07-30 18:00:47.450 ,4,0,0.,1.2,128.,1.2,0.,1.2,0.,1.2
1979-07-30 18:00:48.650 ,4,0,1.,1.2,136.,1.2,0.,1.2,0.,1.2
1979-07-30 18:00:49.850 ,4,0,0.,1.2,126.,1.2,0.,1.2,0.,1.2
1979-07-30 18:00:51.050 ,4,0,0.,1.2,132.,1.2,0.,1.2,0.,1.2
1979-07-30 18:00:52.250 ,4,0,0.,1.2,256.,1.2,0.,1.2,0.,1.2
1979-07-30 18:00:53.450 ,4,0,0.,1.2,116.,1.2,0.,1.2,0.,1.2
1979-07-30 18:00:54.650 ,4,0,0.,1.2,94.,1.2,0.,1.2,0.,1.2
1979-07-30 18:00:55.850 ,4,0,0.,1.2,96.,1.2,0.,1.2,0.,1.2
1979-07-30 18:00:57.050 ,4,0,0.,1.2,100.,1.2,0.,1.2,0.,1.2
1979-07-30 18:00:58.250 ,4,0,0.,1.2,232.,1.2,0.,1.2,0.,1.2
1979-07-30 18:00:59.450 ,4,0,1.,1.2,50.,1.2,0.,1.2,0.,1.2
1979-07-30 18:01:00.650 ,4,0,0.,1.2,50.,1.2,0.,1.2,0.,1.2
1979-07-30 18:01:01.850 ,4,0,1.,1.2,43.,1.2,1.,1.2,0.,1.2
1979-07-30 18:01:03.050 ,4,0,0.,1.2,41.,1.2,0.,1.2,0.,1.2
1979-07-30 18:01:04.250 ,4,0,0.,1.2,236.,1.2,0.,1.2,0.,1.2
1979-07-30 18:01:05.450 ,4,0,0.,1.2,128.,1.2,0.,1.2,0.,1.2
1979-07-30 18:01:06.650 ,4,0,0.,1.2,124.,1.2,0.,1.2,0.,1.2
1979-07-30 18:01:07.850 ,4,0,0.,1.2,124.,1.2,0.,1.2,0.,1.2
1979-07-30 18:01:09.050 ,4,0,0.,1.2,128.,1.2,0.,1.2,0.,1.2
1979-07-30 18:01:10.250 ,7,0,0.,1.2,264.,1.2,0.,1.2,0.,1.2
1979-07-30 18:01:11.450 ,7,0,0.,1.2,124.,1.2,0.,1.2,0.,1.2
1979-07-30 18:01:12.650 ,7,0,2.,1.2,122.,1.2,0.,1.2,0.,1.2
1979-07-30 18:01:13.850 ,7,0,0.,1.2,132.,1.2,0.,1.2,0.,1.2
1979-07-30 18:01:15.050 ,7,0,0.,1.2,116.,1.2,0.,1.2,0.,1.2
1979-07-30 18:01:16.250 ,7,0,1.,1.2,248.,1.2,0.,1.2,0.,1.2
1979-07-30 18:01:17.450 ,7,0,0.,1.2,128.,1.2,0.,1.2,0.,1.2
1979-07-30 18:01:18.650 ,7,0,1.,1.2,112.,1.2,0.,1.2,0.,1.2
1979-07-30 18:01:19.850 ,7,0,0.,1.2,122.,1.2,0.,1.2,0.,1.2
1979-07-30 18:01:21.050 ,7,0,0.,1.2,140.,1.2,0.,1.2,0.,1.2
1979-07-30 18:01:22.250 ,7,0,0.,1.2,256.,1.2,0.,1.2,0.,1.2
1979-07-30 18:01:23.450 ,7,0,0.,1.2,128.,1.2,6.,1.2,0.,1.2
1979-07-30 18:01:24.650 ,7,0,0.,1.2,136.,1.2,4.,1.2,0.,1.2
1979-07-30 18:01:25.850 ,7,0,0.,1.2,126.,1.2,6.,1.2,0.,1.2
1979-07-30 18:01:27.050 ,7,0,0.,1.2,140.,1.2,4.,1.2,0.,1.2
1979-07-30 18:01:28.250 ,7,0,0.,1.2,124.,1.2,3.,1.2,0.,1.2
1979-07-30 18:01:29.450 ,7,0,0.,1.2,106.,1.2,6.,1.2,1.,1.2
1979-07-30 18:01:30.650 ,7,0,0.,1.2,124.,1.2,1.,1.2,0.,1.2
1979-07-30 18:01:31.850 ,7,0,0.,1.2,112.,1.2,5.,1.2,0.,1.2
1979-07-30 18:01:33.050 ,7,0,0.,1.2,122.,1.2,7.,1.2,0.,1.2
1979-07-30 18:01:34.250 ,3,0,0.,1.2,256.,1.2,3.,1.2,0.,1.2
1979-07-30 18:01:35.450 ,3,0,0.,1.2,124.,1.2,0.,1.2,0.,1.2
1979-07-30 18:01:36.650 ,3,0,0.,1.2,128.,1.2,0.,1.2,0.,1.2
1979-07-30 18:01:37.850 ,3,0,1.,1.2,126.,1.2,0.,1.2,0.,1.2
1979-07-30 18:01:39.050 ,3,0,0.,1.2,110.,1.2,0.,1.2,0.,1.2
1979-07-30 18:01:40.250 ,3,0,2.,1.2,232.,1.2,0.,1.2,0.,1.2
1979-07-30 18:01:41.450 ,3,0,0.,1.2,128.,1.2,0.,1.2,0.,1.2
1979-07-30 18:01:42.650 ,3,0,0.,1.2,128.,1.2,0.,1.2,0.,1.2
1979-07-30 18:01:43.850 ,3,0,0.,1.2,122.,1.2,0.,1.2,0.,1.2
1979-07-30 18:01:45.050 ,3,0,0.,1.2,106.,1.2,0.,1.2,0.,1.2
1979-07-30 18:01:46.250 ,3,0,0.,1.2,252.,1.2,0.,1.2,0.,1.2
1979-07-30 18:01:47.450 ,3,0,1.,1.2,110.,1.2,0.,1.2,0.,1.2
1979-07-30 18:01:48.650 ,3,0,1.,1.2,114.,1.2,0.,1.2,0.,1.2
1979-07-30 18:01:49.850 ,3,0,0.,1.2,132.,1.2,0.,1.2,0.,1.2
1979-07-30 18:01:51.050 ,3,0,0.,1.2,126.,1.2,0.,1.2,0.,1.2
1979-07-30 18:01:52.250 ,3,0,0.,1.2,256.,1.2,0.,1.2,0.,1.2
1979-07-30 18:01:53.450 ,3,0,0.,1.2,38.,1.2,0.,1.2,0.,1.2
1979-07-30 18:01:54.650 ,3,0,1.,1.2,39.,1.2,0.,1.2,0.,1.2
1979-07-30 18:01:55.850 ,3,0,1.,1.2,34.,1.2,0.,1.2,0.,1.2
1979-07-30 18:01:57.050 ,3,0,0.,1.2,44.,1.2,0.,1.2,0.,1.2
1979-07-30 18:01:58.250 ,0,0,2.,1.2,224.,1.2,0.,1.2,0.,1.2
1979-07-30 18:01:59.450 ,0,0,0.,1.2,98.,1.2,0.,1.2,0.,1.2
1979-07-30 18:02:00.650 ,0,0,0.,1.2,90.,1.2,0.,1.2,0.,1.2
1979-07-30 18:02:01.850 ,0,0,0.,1.2,92.,1.2,0.,1.2,0.,1.2
1979-07-30 18:02:03.050 ,0,0,1.,1.2,112.,1.2,0.,1.2,0.,1.2
1979-07-30 18:02:04.250 ,0,0,0.,1.2,304.,1.2,0.,1.2,0.,1.2
1979-07-30 18:02:05.450 ,0,0,2.,1.2,114.,1.2,0.,1.2,0.,1.2
1979-07-30 18:02:06.650 ,0,0,0.,1.2,122.,1.2,0.,1.2,0.,1.2
1979-07-30 18:02:07.850 ,0,0,1.,1.2,136.,1.2,0.,1.2,0.,1.2
1979-07-30 18:02:09.050 ,0,0,0.,1.2,144.,1.2,0.,1.2,0.,1.2
1979-07-30 18:02:10.250 ,0,0,0.,1.2,312.,1.2,0.,1.2,0.,1.2
1979-07-30 18:02:11.450 ,0,0,0.,1.2,136.,1.2,0.,1.2,0.,1.2
1979-07-30 18:02:12.650 ,0,0,0.,1.2,140.,1.2,0.,1.2,0.,1.2
1979-07-30 18:02:13.850 ,0,0,0.,1.2,144.,1.2,0.,1.2,0.,1.2
1979-07-30 18:02:15.050 ,0,0,0.,1.2,164.,1.2,0.,1.2,0.,1.2
1979-07-30 18:02:16.250 ,0,0,1.,1.2,148.,1.2,0.,1.2,1.,1.2
1979-07-30 18:02:17.450 ,0,0,1.,1.2,160.,1.2,0.,1.2,0.,1.2
1979-07-30 18:02:18.650 ,0,0,0.,1.2,136.,1.2,0.,1.2,0.,1.2
1979-07-30 18:02:19.850 ,0,0,0.,1.2,160.,1.2,0.,1.2,0.,1.2
1979-07-30 18:02:21.050 ,0,0,0.,1.2,148.,1.2,0.,1.2,0.,1.2
1979-07-30 18:02:22.250 ,4,0,0.,1.2,256.,1.2,0.,1.2,0.,1.2
1979-07-30 18:02:23.450 ,4,0,0.,1.2,124.,1.2,0.,1.2,0.,1.2
1979-07-30 18:02:24.650 ,4,0,0.,1.2,126.,1.2,0.,1.2,0.,1.2
1979-07-30 18:02:25.850 ,4,0,0.,1.2,140.,1.2,0.,1.2,0.,1.2
1979-07-30 18:02:27.050 ,4,0,0.,1.2,144.,1.2,0.,1.2,0.,1.2
1979-07-30 18:02:28.250 ,4,0,0.,1.2,288.,1.2,0.,1.2,0.,1.2
1979-07-30 18:02:29.450 ,4,0,0.,1.2,126.,1.2,0.,1.2,0.,1.2
1979-07-30 18:02:30.650 ,4,0,0.,1.2,118.,1.2,0.,1.2,0.,1.2
1979-07-30 18:02:31.850 ,4,0,0.,1.2,100.,1.2,0.,1.2,0.,1.2
1979-07-30 18:02:33.050 ,4,0,0.,1.2,92.,1.2,0.,1.2,0.,1.2
1979-07-30 18:02:34.250 ,4,0,0.,1.2,220.,1.2,0.,1.2,0.,1.2
1979-07-30 18:02:35.450 ,4,0,0.,1.2,30.,1.2,0.,1.2,0.,1.2
1979-07-30 18:02:36.650 ,4,0,1.,1.2,34.,1.2,0.,1.2,0.,1.2
1979-07-30 18:02:37.850 ,4,0,1.,1.2,46.,1.2,0.,1.2,0.,1.2
1979-07-30 18:02:39.050 ,4,0,1.,1.2,37.,1.2,0.,1.2,0.,1.2
1979-07-30 18:02:40.250 ,4,0,0.,1.2,240.,1.2,0.,1.2,0.,1.2
1979-07-30 18:02:41.450 ,4,0,0.,1.2,120.,1.2,0.,1.2,0.,1.2
1979-07-30 18:02:42.650 ,4,0,0.,1.2,114.,1.2,0.,1.2,0.,1.2
1979-07-30 18:02:43.850 ,4,0,0.,1.2,128.,1.2,0.,1.2,0.,1.2
1979-07-30 18:02:45.050 ,4,0,0.,1.2,122.,1.2,0.,1.2,0.,1.2
1979-07-30 18:02:46.250 ,7,0,0.,1.2,256.,1.2,0.,1.2,0.,1.2
1979-07-30 18:02:47.450 ,7,0,1.,1.2,132.,1.2,0.,1.2,1.,1.2
1979-07-30 18:02:48.650 ,7,0,0.,1.2,98.,1.2,0.,1.2,0.,1.2
1979-07-30 18:02:49.850 ,7,0,0.,1.2,116.,1.2,0.,1.2,0.,1.2
1979-07-30 18:02:51.050 ,7,0,0.,1.2,124.,1.2,0.,1.2,0.,1.2
1979-07-30 18:02:52.250 ,7,0,1.,1.2,280.,1.2,0.,1.2,0.,1.2
1979-07-30 18:02:53.450 ,7,0,0.,1.2,118.,1.2,0.,1.2,0.,1.2
1979-07-30 18:02:54.650 ,7,0,2.,1.2,118.,1.2,0.,1.2,0.,1.2
1979-07-30 18:02:55.850 ,7,0,0.,1.2,120.,1.2,0.,1.2,0.,1.2
1979-07-30 18:02:57.050 ,7,0,0.,1.2,118.,1.2,0.,1.2,0.,1.2
1979-07-30 18:02:58.250 ,7,0,0.,1.2,280.,1.2,1.,1.2,0.,1.2
1979-07-30 18:02:59.450 ,7,0,0.,1.2,116.,1.2,4.,1.2,0.,1.2
1979-07-30 18:03:00.650 ,7,0,0.,1.2,136.,1.2,5.,1.2,0.,1.2
1979-07-30 18:03:01.850 ,7,0,0.,1.2,106.,1.2,3.,1.2,0.,1.2
1979-07-30 18:03:03.050 ,7,0,0.,1.2,132.,1.2,3.,1.2,0.,1.2
1979-07-30 18:03:04.250 ,7,0,0.,1.2,118.,1.2,5.,1.2,0.,1.2
1979-07-30 18:03:05.450 ,7,0,0.,1.2,114.,1.2,4.,1.2,0.,1.2
1979-07-30 18:03:06.650 ,7,0,0.,1.2,128.,1.2,8.,1.2,0.,1.2
1979-07-30 18:03:07.850 ,7,0,0.,1.2,126.,1.2,2.,1.2,0.,1.2
1979-07-30 18:03:09.050 ,7,0,0.,1.2,110.,1.2,4.,1.2,0.,1.2
1979-07-30 18:03:10.250 ,3,0,0.,1.2,280.,1.2,3.,1.2,0.,1.2
1979-07-30 18:03:11.450 ,3,0,1.,1.2,102.,1.2,0.,1.2,0.,1.2
1979-07-30 18:03:12.650 ,3,0,0.,1.2,88.,1.2,0.,1.2,0.,1.2
1979-07-30 18:03:13.850 ,3,0,0.,1.2,120.,1.2,0.,1.2,0.,1.2
1979-07-30 18:03:15.050 ,3,0,0.,1.2,128.,1.2,0.,1.2,0.,1.2
1979-07-30 18:03:16.250 ,3,0,0.,1.2,240.,1.2,0.,1.2,0.,1.2
1979-07-30 18:03:17.450 ,3,0,0.,1.2,110.,1.2,0.,1.2,0.,1.2
1979-07-30 18:03:18.650 ,3,0,0.,1.2,106.,1.2,0.,1.2,0.,1.2
1979-07-30 18:03:19.850 ,3,0,,0,,0,,0,,0
1979-07-30 18:03:21.050 ,3,0,,0,,0,,0,,0
1979-07-30 18:03:22.250 ,3,0,0.,1.2,240.,1.2,0.,1.2,0.,1.2
1979-07-30 18:03:23.450 ,3,0,0.,1.2,100.,1.2,0.,1.2,0.,1.2
1979-07-30 18:03:24.650 ,3,0,0.,1.2,108.,1.2,0.,1.2,0.,1.2
1979-07-30 18:03:25.850 ,3,0,0.,1.2,114.,1.2,0.,1.2,0.,1.2
1979-07-30 18:03:27.050 ,3,0,0.,1.2,104.,1.2,0.,1.2,0.,1.2
1979-07-30 18:03:28.250 ,3,0,0.,1.2,220.,1.2,1.,1.2,0.,1.2
1979-07-30 18:03:29.450 ,3,0,0.,1.2,36.,1.2,0.,1.2,0.,1.2
1979-07-30 18:03:30.650 ,3,0,0.,1.2,44.,1.2,0.,1.2,0.,1.2
1979-07-30 18:03:31.850 ,3,0,0.,1.2,36.,1.2,0.,1.2,0.,1.2
1979-07-30 18:03:33.050 ,3,0,1.,1.2,47.,1.2,0.,1.2,0.,1.2
1979-07-30 18:03:34.250 ,0,0,0.,1.2,212.,1.2,0.,1.2,0.,1.2
1979-07-30 18:03:35.450 ,0,0,0.,1.2,100.,1.2,0.,1.2,0.,1.2
1979-07-30 18:03:36.650 ,0,0,0.,1.2,98.,1.2,0.,1.2,0.,1.2
1979-07-30 18:03:37.850 ,0,0,0.,1.2,98.,1.2,0.,1.2,0.,1.2
1979-07-30 18:03:39.050 ,0,0,0.,1.2,106.,1.2,0.,1.2,1.,1.2
1979-07-30 18:03:40.250 ,0,0,1.,1.2,256.,1.2,0.,1.2,0.,1.2
1979-07-30 18:03:41.450 ,0,0,0.,1.2,136.,1.2,0.,1.2,0.,1.2
1979-07-30 18:03:42.650 ,0,0,0.,1.2,110.,1.2,0.,1.2,0.,1.2
1979-07-30 18:03:43.850 ,0,0,0.,1.2,140.,1.2,0.,1.2,0.,1.2
1979-07-30 18:03:45.050 ,0,0,0.,1.2,128.,1.2,0.,1.2,0.,1.2
1979-07-30 18:03:46.250 ,0,0,0.,1.2,304.,1.2,0.,1.2,0.,1.2
1979-07-30 18:03:47.450 ,0,0,0.,1.2,140.,1.2,0.,1.2,0.,1.2
1979-07-30 18:03:48.650 ,0,0,0.,1.2,148.,1.2,0.,1.2,0.,1.2
1979-07-30 18:03:49.850 ,0,0,1.,1.2,136.,1.2,0.,1.2,0.,1.2
1979-07-30 18:03:51.050 ,0,0,0.,1.2,122.,1.2,0.,1.2,0.,1.2
1979-07-30 18:03:52.250 ,0,0,1.,1.2,160.,1.2,0.,1.2,0.,1.2
1979-07-30 18:03:53.450 ,0,0,0.,1.2,126.,1.2,0.,1.2,0.,1.2
1979-07-30 18:03:54.650 ,0,0,2.,1.2,140.,1.2,0.,1.2,0.,1.2
1979-07-30 18:03:55.850 ,0,0,0.,1.2,156.,1.2,0.,1.2,0.,1.2
1979-07-30 18:03:57.050 ,0,0,0.,1.2,136.,1.2,0.,1.2,0.,1.2
1979-07-30 18:03:58.250 ,4,0,0.,1.2,280.,1.2,0.,1.2,0.,1.2
1979-07-30 18:03:59.450 ,4,0,0.,1.2,132.,1.2,0.,1.2,0.,1.2
1979-07-30 18:04:00.650 ,4,0,0.,1.2,110.,1.2,0.,1.2,0.,1.2
1979-07-30 18:04:01.850 ,4,0,0.,1.2,122.,1.2,0.,1.2,0.,1.2
1979-07-30 18:04:03.050 ,4,0,0.,1.2,118.,1.2,0.,1.2,0.,1.2
1979-07-30 18:04:04.250 ,4,0,0.,1.2,240.,1.2,0.,1.2,0.,1.2
1979-07-30 18:04:05.450 ,4,0,0.,1.2,106.,1.2,0.,1.2,0.,1.2
1979-07-30 18:04:06.650 ,4,0,0.,1.2,86.,1.2,0.,1.2,0.,1.2
1979-07-30 18:04:07.850 ,4,0,0.,1.2,106.,1.2,0.,1.2,0.,1.2
1979-07-30 18:04:09.050 ,4,0,0.,1.2,110.,1.2,0.,1.2,0.,1.2
1979-07-30 18:04:10.250 ,4,0,0.,1.2,244.,1.2,0.,1.2,0.,1.2
1979-07-30 18:04:11.450 ,4,0,0.,1.2,45.,1.2,0.,1.2,0.,1.2
1979-07-30 18:04:12.650 ,4,0,0.,1.2,52.,1.2,0.,1.2,0.,1.2
1979-07-30 18:04:13.850 ,4,0,2.,1.2,41.,1.2,0.,1.2,0.,1.2
1979-07-30 18:04:15.050 ,4,0,0.,1.2,33.,1.2,0.,1.2,0.,1.2
1979-07-30 18:04:16.250 ,4,0,1.,1.2,228.,1.2,0.,1.2,0.,1.2
1979-07-30 18:04:17.450 ,4,0,1.,1.2,140.,1.2,0.,1.2,0.,1.2
1979-07-30 18:04:18.650 ,4,0,0.,1.2,114.,1.2,0.,1.2,0.,1.2
1979-07-30 18:04:19.850 ,4,0,0.,1.2,144.,1.2,0.,1.2,0.,1.2
1979-07-30 18:04:21.050 ,4,0,0.,1.2,136.,1.2,0.,1.2,0.,1.2
1979-07-30 18:04:22.250 ,7,0,0.,1.2,264.,1.2,0.,1.2,0.,1.2
1979-07-30 18:04:23.450 ,7,0,1.,1.2,112.,1.2,0.,1.2,0.,1.2
1979-07-30 18:04:24.650 ,7,0,0.,1.2,124.,1.2,0.,1.2,0.,1.2
1979-07-30 18:04:25.850 ,7,0,0.,1.2,128.,1.2,0.,1.2,0.,1.2
1979-07-30 18:04:27.050 ,7,0,0.,1.2,122.,1.2,0.,1.2,0.,1.2
1979-07-30 18:04:28.250 ,7,0,0.,1.2,256.,1.2,0.,1.2,0.,1.2
1979-07-30 18:04:29.450 ,7,0,1.,1.2,116.,1.2,0.,1.2,0.,1.2
1979-07-30 18:04:30.650 ,7,0,0.,1.2,100.,1.2,0.,1.2,0.,1.2
1979-07-30 18:04:31.850 ,7,0,0.,1.2,120.,1.2,0.,1.2,0.,1.2
1979-07-30 18:04:33.050 ,7,0,0.,1.2,118.,1.2,0.,1.2,0.,1.2
1979-07-30 18:04:34.250 ,7,0,0.,1.2,256.,1.2,0.,1.2,0.,1.2
1979-07-30 18:04:35.450 ,7,0,0.,1.2,128.,1.2,2.,1.2,0.,1.2
1979-07-30 18:04:36.650 ,7,0,0.,1.2,122.,1.2,7.,1.2,0.,1.2
1979-07-30 18:04:37.850 ,7,0,0.,1.2,120.,1.2,4.,1.2,0.,1.2
1979-07-30 18:04:39.050 ,7,0,0.,1.2,118.,1.2,8.,1.2,0.,1.2
1979-07-30 18:04:40.250 ,7,0,0.,1.2,136.,1.2,2.,1.2,0.,1.2
1979-07-30 18:04:41.450 ,7,0,0.,1.2,128.,1.2,5.,1.2,0.,1.2
1979-07-30 18:04:42.650 ,7,0,0.,1.2,122.,1.2,8.,1.2,0.,1.2
1979-07-30 18:04:43.850 ,7,0,0.,1.2,136.,1.2,7.,1.2,0.,1.2
1979-07-30 18:04:45.050 ,7,0,0.,1.2,98.,1.2,7.,1.2,0.,1.2
1979-07-30 18:04:46.250 ,3,0,0.,1.2,256.,1.2,4.,1.2,0.,1.2
1979-07-30 18:04:47.450 ,3,0,0.,1.2,144.,1.2,0.,1.2,0.,1.2
1979-07-30 18:04:48.650 ,3,0,0.,1.2,108.,1.2,0.,1.2,0.,1.2
1979-07-30 18:04:49.850 ,3,0,0.,1.2,136.,1.2,0.,1.2,0.,1.2
1979-07-30 18:04:51.050 ,3,0,0.,1.2,120.,1.2,0.,1.2,0.,1.2
1979-07-30 18:04:52.250 ,3,0,0.,1.2,264.,1.2,0.,1.2,0.,1.2
1979-07-30 18:04:53.450 ,3,0,0.,1.2,160.,1.2,0.,1.2,0.,1.2
1979-07-30 18:04:54.650 ,3,0,1.,1.2,148.,1.2,0.,1.2,0.,1.2
1979-07-30 18:04:55.850 ,3,0,0.,1.2,164.,1.2,0.,1.2,0.,1.2
1979-07-30 18:04:57.050 ,3,0,0.,1.2,128.,1.2,0.,1.2,0.,1.2
1979-07-30 18:04:58.250 ,3,0,0.,1.2,280.,1.2,0.,1.2,0.,1.2
1979-07-30 18:04:59.450 ,3,0,0.,1.2,164.,1.2,0.,1.2,0.,1.2
1979-07-30 18:05:00.650 ,3,0,0.,1.2,156.,1.2,0.,1.2,0.,1.2
1979-07-30 18:05:01.850 ,3,0,0.,1.2,144.,1.2,0.,1.2,0.,1.2
1979-07-30 18:05:03.050 ,3,0,1.,1.2,144.,1.2,0.,1.2,0.,1.2
1979-07-30 18:05:04.250 ,3,0,0.,1.2,272.,1.2,0.,1.2,0.,1.2
1979-07-30 18:05:05.450 ,3,0,0.,1.2,35.,1.2,0.,1.2,0.,1.2
1979-07-30 18:05:06.650 ,3,0,1.,1.2,39.,1.2,0.,1.2,0.,1.2
1979-07-30 18:05:07.850 ,3,0,0.,1.2,52.,1.2,0.,1.2,0.,1.2
1979-07-30 18:05:09.050 ,3,0,0.,1.2,47.,1.2,0.,1.2,0.,1.2
1979-07-30 18:05:10.250 ,0,0,0.,1.2,196.,1.2,0.,1.2,0.,1.2
1979-07-30 18:05:11.450 ,0,0,0.,1.2,104.,1.2,0.,1.2,0.,1.2
1979-07-30 18:05:12.650 ,0,0,1.,1.2,98.,1.2,0.,1.2,0.,1.2
1979-07-30 18:05:13.850 ,0,0,0.,1.2,102.,1.2,0.,1.2,0.,1.2
1979-07-30 18:05:15.050 ,0,0,1.,1.2,102.,1.2,0.,1.2,0.,1.2
1979-07-30 18:05:16.250 ,0,0,0.,1.2,296.,1.2,0.,1.2,0.,1.2
1979-07-30 18:05:17.450 ,0,0,0.,1.2,128.,1.2,0.,1.2,0.,1.2
1979-07-30 18:05:18.650 ,0,0,1.,1.2,132.,1.2,0.,1.2,0.,1.2
1979-07-30 18:05:19.850 ,0,0,0.,1.2,126.,1.2,0.,1.2,0.,1.2
1979-07-30 18:05:21.050 ,0,0,1.,1.2,132.,1.2,0.,1.2,0.,1.2
1979-07-30 18:05:22.250 ,0,0,0.,1.2,296.,1.2,0.,1.2,0.,1.2
1979-07-30 18:05:23.450 ,0,0,1.,1.2,112.,1.2,0.,1.2,0.,1.2
1979-07-30 18:05:24.650 ,0,0,0.,1.2,144.,1.2,0.,1.2,0.,1.2
1979-07-30 18:05:25.850 ,0,0,0.,1.2,136.,1.2,0.,1.2,0.,1.2
1979-07-30 18:05:27.050 ,0,0,0.,1.2,148.,1.2,0.,1.2,0.,1.2
1979-07-30 18:05:28.250 ,0,0,0.,1.2,160.,1.2,0.,1.2,0.,1.2
1979-07-30 18:05:29.450 ,0,0,0.,1.2,116.,1.2,0.,1.2,0.,1.2
1979-07-30 18:05:30.650 ,0,0,1.,1.2,126.,1.2,0.,1.2,0.,1.2
1979-07-30 18:05:31.850 ,0,0,0.,1.2,144.,1.2,0.,1.2,0.,1.2
1979-07-30 18:05:33.050 ,0,0,0.,1.2,152.,1.2,0.,1.2,0.,1.2
1979-07-30 18:05:34.250 ,0,0,0.,1.2,256.,1.2,0.,1.2,0.,1.2
1979-07-30 18:05:35.450 ,0,0,0.,1.2,140.,1.2,0.,1.2,0.,1.2
1979-07-30 18:05:36.650 ,0,0,0.,1.2,112.,1.2,0.,1.2,0.,1.2
1979-07-30 18:05:37.850 ,0,0,1.,1.2,118.,1.2,0.,1.2,0.,1.2
1979-07-30 18:05:39.050 ,0,0,0.,1.2,118.,1.2,0.,1.2,0.,1.2
1979-07-30 18:05:40.250 ,0,0,0.,1.2,272.,1.2,0.,1.2,0.,1.2
1979-07-30 18:05:41.450 ,0,0,0.,1.2,88.,1.2,0.,1.2,0.,1.2
1979-07-30 18:05:42.650 ,0,0,0.,1.2,100.,1.2,0.,1.2,0.,1.2
1979-07-30 18:05:43.850 ,0,0,0.,1.2,88.,1.2,0.,1.2,0.,1.2
1979-07-30 18:05:45.050 ,0,0,0.,1.2,70.,1.2,0.,1.2,0.,1.2
1979-07-30 18:05:46.250 ,0,0,0.,1.2,240.,1.2,0.,1.2,0.,1.2
1979-07-30 18:05:47.450 ,0,0,1.,1.2,40.,1.2,0.,1.2,0.,1.2
1979-07-30 18:05:48.650 ,0,0,0.,1.2,32.,1.2,0.,1.2,0.,1.2
1979-07-30 18:05:49.850 ,0,0,0.,1.2,26.,1.2,0.,1.2,0.,1.2
1979-07-30 18:05:51.050 ,0,0,1.,1.2,48.,1.2,0.,1.2,0.,1.2
1979-07-30 18:05:52.250 ,0,0,0.,1.2,232.,1.2,0.,1.2,0.,1.2
1979-07-30 18:05:53.450 ,0,0,0.,1.2,118.,1.2,0.,1.2,0.,1.2
1979-07-30 18:05:54.650 ,0,0,0.,1.2,108.,1.2,0.,1.2,0.,1.2
1979-07-30 18:05:55.850 ,0,0,1.,1.2,92.,1.2,0.,1.2,0.,1.2
1979-07-30 18:05:57.050 ,0,0,0.,1.2,126.,1.2,0.,1.2,0.,1.2
1979-07-30 18:05:58.250 ,0,0,0.,1.2,228.,1.2,0.,1.2,0.,1.2
1979-07-30 18:05:59.450 ,0,0,0.,1.2,110.,1.2,0.,1.2,0.,1.2
1979-07-30 18:06:00.650 ,0,0,1.,1.2,116.,1.2,0.,1.2,0.,1.2
1979-07-30 18:06:01.850 ,0,0,0.,1.2,120.,1.2,0.,1.2,0.,1.2
1979-07-30 18:06:03.050 ,0,0,0.,1.2,116.,1.2,0.,1.2,0.,1.2
1979-07-30 18:06:04.250 ,0,0,0.,1.2,256.,1.2,0.,1.2,0.,1.2
1979-07-30 18:06:05.450 ,0,0,0.,1.2,106.,1.2,0.,1.2,0.,1.2
1979-07-30 18:06:06.650 ,0,0,0.,1.2,112.,1.2,0.,1.2,0.,1.2
1979-07-30 18:06:07.850 ,0,0,0.,1.2,118.,1.2,0.,1.2,0.,1.2
1979-07-30 18:06:09.050 ,0,0,0.,1.2,100.,1.2,0.,1.2,0.,1.2
1979-07-30 18:06:10.250 ,0,0,0.,1.2,256.,1.2,2.,1.2,0.,1.2
1979-07-30 18:06:11.450 ,0,0,0.,1.2,118.,1.2,5.,1.2,0.,1.2
1979-07-30 18:06:12.650 ,0,0,0.,1.2,108.,1.2,6.,1.2,0.,1.2
1979-07-30 18:06:13.850 ,0,0,0.,1.2,98.,1.2,3.,1.2,0.,1.2
1979-07-30 18:06:15.050 ,0,0,0.,1.2,132.,1.2,4.,1.2,0.,1.2
1979-07-30 18:06:16.250 ,0,0,0.,1.2,136.,1.2,6.,1.2,0.,1.2
1979-07-30 18:06:17.450 ,0,0,0.,1.2,100.,1.2,3.,1.2,0.,1.2
1979-07-30 18:06:18.650 ,0,0,0.,1.2,100.,1.2,3.,1.2,0.,1.2
1979-07-30 18:06:19.850 ,0,0,0.,1.2,116.,1.2,5.,1.2,0.,1.2
1979-07-30 18:06:21.050 ,0,0,0.,1.2,122.,1.2,1.,1.2,0.,1.2
1979-07-30 18:06:22.250 ,5,0,1.,1.2,296.,1.2,3.,1.2,0.,1.2
1979-07-30 18:06:23.450 ,5,0,0.,1.2,114.,1.2,0.,1.2,0.,1.2
1979-07-30 18:06:24.650 ,5,0,0.,1.2,116.,1.2,0.,1.2,0.,1.2
1979-07-30 18:06:25.850 ,5,0,0.,1.2,120.,1.2,0.,1.2,0.,1.2
1979-07-30 18:06:27.050 ,5,0,0.,1.2,108.,1.2,0.,1.2,0.,1.2
1979-07-30 18:06:28.250 ,5,0,0.,1.2,312.,1.2,0.,1.2,0.,1.2
1979-07-30 18:06:29.450 ,5,0,0.,1.2,144.,1.2,0.,1.2,0.,1.2
1979-07-30 18:06:30.650 ,5,0,0.,1.2,122.,1.2,0.,1.2,0.,1.2
1979-07-30 18:06:31.850 ,5,0,1.,1.2,118.,1.2,0.,1.2,0.,1.2
1979-07-30 18:06:33.050 ,5,0,0.,1.2,128.,1.2,0.,1.2,0.,1.2
1979-07-30 18:06:34.250 ,5,0,1.,1.2,136.,1.2,0.,1.2,0.,1.2
1979-07-30 18:06:35.450 ,5,0,0.,1.2,128.,1.2,0.,1.2,0.,1.2
1979-07-30 18:06:36.650 ,5,0,1.,1.2,118.,1.2,0.,1.2,0.,1.2
1979-07-30 18:06:37.850 ,5,0,0.,1.2,148.,1.2,0.,1.2,0.,1.2
1979-07-30 18:06:39.050 ,5,0,0.,1.2,144.,1.2,0.,1.2,0.,1.2
1979-07-30 18:06:40.250 ,5,0,1.,1.2,132.,1.2,0.,1.2,0.,1.2
1979-07-30 18:06:41.450 ,5,0,3.,1.2,144.,1.2,0.,1.2,0.,1.2
1979-07-30 18:06:42.650 ,5,0,1.,1.2,118.,1.2,0.,1.2,0.,1.2
1979-07-30 18:06:43.850 ,5,0,0.,1.2,124.,1.2,0.,1.2,0.,1.2
1979-07-30 18:06:45.050 ,5,0,0.,1.2,140.,1.2,0.,1.2,0.,1.2
1979-07-30 18:06:46.250 ,5,0,1.,1.2,140.,1.2,0.,1.2,0.,1.2
1979-07-30 18:06:47.450 ,5,0,0.,1.2,132.,1.2,0.,1.2,0.,1.2
1979-07-30 18:06:48.650 ,5,0,0.,1.2,116.,1.2,0.,1.2,0.,1.2
1979-07-30 18:06:49.850 ,5,0,1.,1.2,136.,1.2,0.,1.2,0.,1.2
1979-07-30 18:06:51.050 ,5,0,0.,1.2,136.,1.2,0.,1.2,0.,1.2
1979-07-30 18:06:52.250 ,5,0,0.,1.2,144.,1.2,0.,1.2,0.,1.2
1979-07-30 18:06:53.450 ,5,0,0.,1.2,112.,1.2,0.,1.2,0.,1.2
1979-07-30 18:06:54.650 ,5,0,2.,1.2,136.,1.2,0.,1.2,0.,1.2
1979-07-30 18:06:55.850 ,5,0,0.,1.2,148.,1.2,0.,1.2,0.,1.2
1979-07-30 18:06:57.050 ,5,0,0.,1.2,136.,1.2,0.,1.2,0.,1.2
1979-07-30 18:06:58.250 ,5,0,0.,1.2,132.,1.2,0.,1.2,0.,1.2
1979-07-30 18:06:59.450 ,5,0,0.,1.2,122.,1.2,0.,1.2,0.,1.2
1979-07-30 18:07:00.650 ,5,0,0.,1.2,100.,1.2,0.,1.2,0.,1.2
1979-07-30 18:07:01.850 ,5,0,0.,1.2,144.,1.2,0.,1.2,0.,1.2
1979-07-30 18:07:03.050 ,5,0,0.,1.2,120.,1.2,0.,1.2,0.,1.2
1979-07-30 18:07:04.250 ,5,0,1.,1.2,128.,1.2,0.,1.2,0.,1.2
1979-07-30 18:07:05.450 ,5,0,0.,1.2,104.,1.2,0.,1.2,0.,1.2
1979-07-30 18:07:06.650 ,5,0,0.,1.2,132.,1.2,0.,1.2,0.,1.2
1979-07-30 18:07:07.850 ,5,0,0.,1.2,118.,1.2,0.,1.2,0.,1.2
1979-07-30 18:07:09.050 ,5,0,1.,1.2,148.,1.2,0.,1.2,0.,1.2
1979-07-30 18:07:10.250 ,4,0,0.,1.2,128.,1.2,0.,1.2,0.,1.2
1979-07-30 18:07:11.450 ,4,0,0.,1.2,118.,1.2,0.,1.2,0.,1.2
1979-07-30 18:07:12.650 ,4,0,0.,1.2,128.,1.2,0.,1.2,0.,1.2
1979-07-30 18:07:13.850 ,4,0,0.,1.2,140.,1.2,0.,1.2,0.,1.2
1979-07-30 18:07:15.050 ,4,0,2.,1.2,128.,1.2,0.,1.2,0.,1.2
1979-07-30 18:07:16.250 ,4,0,0.,1.2,288.,1.2,0.,1.2,0.,1.2
1979-07-30 18:07:17.450 ,4,0,0.,1.2,140.,1.2,0.,1.2,0.,1.2
1979-07-30 18:07:18.650 ,4,0,0.,1.2,140.,1.2,0.,1.2,0.,1.2
1979-07-30 18:07:19.850 ,4,0,0.,1.2,120.,1.2,0.,1.2,0.,1.2
1979-07-30 18:07:21.050 ,4,0,1.,1.2,106.,1.2,0.,1.2,0.,1.2
1979-07-30 18:07:22.250 ,4,0,0.,1.2,124.,1.2,0.,1.2,0.,1.2
1979-07-30 18:07:23.450 ,4,0,0.,1.2,122.,1.2,0.,1.2,0.,1.2
1979-07-30 18:07:24.650 ,4,0,0.,1.2,140.,1.2,0.,1.2,0.,1.2
1979-07-30 18:07:25.850 ,4,0,0.,1.2,128.,1.2,0.,1.2,0.,1.2
1979-07-30 18:07:27.050 ,4,0,0.,1.2,124.,1.2,0.,1.2,0.,1.2
1979-07-30 18:07:28.250 ,4,0,1.,1.2,108.,1.2,0.,1.2,0.,1.2
1979-07-30 18:07:29.450 ,4,0,0.,1.2,140.,1.2,0.,1.2,0.,1.2
1979-07-30 18:07:30.650 ,4,0,0.,1.2,140.,1.2,0.,1.2,0.,1.2
1979-07-30 18:07:31.850 ,4,0,1.,1.2,132.,1.2,0.,1.2,0.,1.2
1979-07-30 18:07:33.050 ,4,0,2.,1.2,116.,1.2,0.,1.2,0.,1.2
1979-07-30 18:07:34.250 ,4,0,1.,1.2,104.,1.2,0.,1.2,0.,1.2
1979-07-30 18:07:35.450 ,4,0,0.,1.2,120.,1.2,0.,1.2,0.,1.2
1979-07-30 18:07:36.650 ,4,0,0.,1.2,116.,1.2,0.,1.2,0.,1.2
1979-07-30 18:07:37.850 ,4,0,1.,1.2,140.,1.2,0.,1.2,0.,1.2
1979-07-30 18:07:39.050 ,4,0,1.,1.2,122.,1.2,0.,1.2,0.,1.2
1979-07-30 18:07:40.250 ,4,0,0.,1.2,140.,1.2,0.,1.2,0.,1.2
1979-07-30 18:07:41.450 ,4,0,0.,1.2,136.,1.2,0.,1.2,0.,1.2
1979-07-30 18:07:42.650 ,4,0,0.,1.2,128.,1.2,0.,1.2,0.,1.2
1979-07-30 18:07:43.850 ,4,0,0.,1.2,118.,1.2,0.,1.2,0.,1.2
1979-07-30 18:07:45.050 ,4,0,1.,1.2,108.,1.2,0.,1.2,0.,1.2
1979-07-30 18:07:46.250 ,4,0,0.,1.2,124.,1.2,0.,1.2,0.,1.2
1979-07-30 18:07:47.450 ,4,0,1.,1.2,126.,1.2,0.,1.2,0.,1.2
1979-07-30 18:07:48.650 ,4,0,1.,1.2,118.,1.2,0.,1.2,0.,1.2
1979-07-30 18:07:49.850 ,4,0,1.,1.2,136.,1.2,0.,1.2,0.,1.2
1979-07-30 18:07:51.050 ,4,0,0.,1.2,128.,1.2,0.,1.2,0.,1.2
1979-07-30 18:07:52.250 ,4,0,1.,1.2,116.,1.2,0.,1.2,0.,1.2
1979-07-30 18:07:53.450 ,4,0,0.,1.2,124.,1.2,0.,1.2,0.,1.2
1979-07-30 18:07:54.650 ,4,0,0.,1.2,128.,1.2,0.,1.2,0.,1.2
1979-07-30 18:07:55.850 ,4,0,0.,1.2,132.,1.2,0.,1.2,0.,1.2
1979-07-30 18:07:57.050 ,4,0,1.,1.2,128.,1.2,0.,1.2,0.,1.2
1979-07-30 18:07:58.250 ,3,0,0.,1.2,112.,1.2,0.,1.2,0.,1.2
1979-07-30 18:07:59.450 ,3,0,0.,1.2,144.,1.2,0.,1.2,0.,1.2
1979-07-30 18:08:00.650 ,3,0,0.,1.2,128.,1.2,0.,1.2,0.,1.2
1979-07-30 18:08:01.850 ,3,0,0.,1.2,122.,1.2,0.,1.2,0.,1.2
1979-07-30 18:08:03.050 ,3,0,1.,1.2,122.,1.2,0.,1.2,0.,1.2
1979-07-30 18:08:04.250 ,3,0,1.,1.2,264.,1.2,0.,1.2,0.,1.2
1979-07-30 18:08:05.450 ,3,0,0.,1.2,32.,1.2,0.,1.2,0.,1.2
1979-07-30 18:08:06.650 ,3,0,0.,1.2,41.,1.2,0.,1.2,0.,1.2
1979-07-30 18:08:07.850 ,3,0,0.,1.2,54.,1.2,0.,1.2,0.,1.2
1979-07-30 18:08:09.050 ,3,0,0.,1.2,36.,1.2,0.,1.2,0.,1.2
1979-07-30 18:08:10.250 ,3,0,0.,1.2,50.,1.2,0.,1.2,0.,1.2
1979-07-30 18:08:11.450 ,3,0,0.,1.2,42.,1.2,0.,1.2,0.,1.2
1979-07-30 18:08:12.650 ,3,0,1.,1.2,40.,1.2,0.,1.2,0.,1.2
1979-07-30 18:08:13.850 ,3,0,0.,1.2,43.,1.2,0.,1.2,0.,1.2
1979-07-30 18:08:15.050 ,3,0,0.,1.2,36.,1.2,0.,1.2,0.,1.2
1979-07-30 18:08:16.250 ,3,0,0.,1.2,33.,1.2,0.,1.2,0.,1.2
1979-07-30 18:08:17.450 ,3,0,0.,1.2,44.,1.2,0.,1.2,0.,1.2
1979-07-30 18:08:18.650 ,3,0,0.,1.2,42.,1.2,0.,1.2,0.,1.2
1979-07-30 18:08:19.850 ,3,0,1.,1.2,39.,1.2,0.,1.2,0.,1.2
1979-07-30 18:08:21.050 ,3,0,0.,1.2,44.,1.2,0.,1.2,0.,1.2